EW9577 Weather Reports


time (UTC)temp
F
wind
direction
speed
knots
gust
knots
rain 1hr
in
rain 24hr
in
rain mn
in
humidity
%
barometer
mb
20260510201204 79 282 4.3 10.4 0.00 0.00 0.00 53 1015.0
20260510200703 80 304 5.2 10.4 0.00 0.00 0.00 52 1015.0
20260510200203 80 303 4.3 8.7 0.00 0.00 0.00 50 1015.0
20260510194703 79 301 0.9 7.0 0.00 0.00 0.00 53 1015.0
20260510194203 78 332 0.9 7.0 0.00 0.00 0.00 55 1015.0
20260510193703 76 309 4.3 7.0 0.00 0.00 0.00 57 1015.2
20260510193203 75 307 2.6 7.0 0.00 0.00 0.00 59 1015.3
20260510191703 76 336 6.1 11.3 0.00 0.00 0.00 57 1015.3
20260510191203 77 279 7.8 11.3 0.00 0.00 0.00 53 1015.2
20260510190703 77 268 6.1 11.3 0.00 0.00 0.00 53 1015.2
20260510190203 78 308 5.2 11.3 0.00 0.00 0.00 52 1015.1
20260510184704 77 327 6.1 13.0 0.00 0.00 0.00 53 1015.1
20260510184203 78 291 6.1 13.0 0.00 0.00 0.00 54 1015.1
20260510183703 79 301 6.1 15.6 0.00 0.00 0.00 52 1015.1
20260510183203 78 298 8.7 15.6 0.00 0.00 0.00 51 1015.1
20260510181703 80 275 5.2 11.3 0.00 0.00 0.00 51 1014.9
20260510180703 78 317 7.0 10.4 0.00 0.00 0.00 53 1015.0
20260510180203 78 281 6.1 10.4 0.00 0.00 0.00 51 1015.0
20260510174703 77 293 5.2 10.4 0.00 0.00 0.00 55 1015.0
20260510174203 77 301 5.2 10.4 0.00 0.00 0.00 54 1015.0
20260510173703 76 273 4.3 10.4 0.00 0.00 0.00 54 1015.0
20260510173203 76 297 5.2 10.4 0.00 0.00 0.00 56 1015.0
20260510171703 75 295 6.1 8.7 0.00 0.00 0.00 58 1015.1
20260510171204 74 310 4.3 10.4 0.00 0.00 0.00 59 1015.1
20260510170703 73 321 4.3 10.4 0.00 0.00 0.00 60 1015.1
20260510170204 74 311 6.1 10.4 0.00 0.00 0.00 58 1015.3
20260510164703 76 285 2.6 7.8 0.00 0.00 0.00 55 1015.1
20260510164203 76 312 5.2 7.8 0.00 0.00 0.00 54 1015.0
20260510163704 76 307 5.2 7.8 0.00 0.00 0.00 55 1015.0
20260510163203 76 302 5.2 7.8 0.00 0.00 0.00 54 1015.0
20260510161704 76 278 3.5 8.7 0.00 0.00 0.00 56 1015.1
20260510161203 76 307 6.1 8.7 0.00 0.00 0.00 54 1015.1
20260510160703 75 283 5.2 7.8 0.00 0.00 0.00 55 1015.1
20260510160203 75 272 2.6 7.8 0.00 0.00 0.00 56 1015.1
20260510154703 75 237 3.5 8.7 0.00 0.00 0.00 54 1015.1
20260510154203 76 247 4.3 8.7 0.00 0.00 0.00 53 1015.1
20260510151203 78 189 6.1 11.3 0.00 0.00 0.00 51 1014.6
20260510150705 77 193 5.2 11.3 0.00 0.00 0.00 51 1014.7
20260510150204 77 205 6.1 11.3 0.00 0.00 0.00 52 1014.8
20260510144703 76 195 5.2 10.4 0.00 0.00 0.00 53 1015.0
20260510144203 76 230 6.1 10.4 0.00 0.00 0.00 53 1014.8
20260510143704 75 218 3.5 10.4 0.00 0.00 0.00 55 1014.7
20260510141703 73 192 4.3 7.0 0.00 0.00 0.00 59 1015.0
20260510141203 72 201 1.7 5.2 0.00 0.00 0.00 61 1015.0
20260510140703 72 259 2.6 4.3 0.00 0.00 0.00 62 1015.1
20260510140204 72 251 0.9 4.3 0.00 0.00 0.00 63 1015.1
20260510134704 73 190 3.5 6.1 0.00 0.00 0.00 61 1015.1
20260510134203 72 183 2.6 5.2 0.00 0.00 0.00 63 1015.1
20260510133703 71 188 2.6 7.8 0.00 0.00 0.00 64 1015.0
20260510133203 71 188 4.3 7.8 0.00 0.00 0.00 65 1015.0
20260510131703 69 192 2.6 5.2 0.00 0.00 0.00 67 1015.0
20260510131204 69 217 0.9 4.3 0.00 0.00 0.00 68 1014.9
20260510130703 69 197 2.6 5.2 0.00 0.00 0.00 69 1014.8
20260510124703 67 329 0.0 0.0 0.00 0.00 0.00 74 1014.9
20260510123204 65 328 0.9 1.7 0.00 0.00 0.00 79 1014.8
20260510121703 62 23 0.0 0.0 0.00 0.00 0.00 84 1014.8
20260510121204 61 23 0.0 0.0 0.00 0.00 0.00 86 1014.7
20260510120704 60 23 0.0 0.0 0.00 0.00 0.00 87 1014.7
20260510120203 59 23 0.0 0.0 0.00 0.00 0.00 89 1014.7
20260510114703 57 23 0.0 0.0 0.00 0.00 0.00 93 1014.4
20260510114204 56 23 0.0 0.0 0.00 0.00 0.00 94 1014.5
20260510113703 55 23 0.0 0.0 0.00 0.00 0.00 95 1014.4
20260510113203 54 23 0.0 0.0 0.00 0.00 0.00 96 1014.4
20260510111204 51 23 0.0 0.0 0.00 0.00 0.00 97 1013.9
20260510110703 51 23 0.0 0.0 0.00 0.00 0.00 97 1013.9
20260510110203 50 23 0.0 0.0 0.00 0.00 0.00 97 1013.8
20260510104703 50 23 0.0 0.0 0.00 0.00 0.00 97 1013.7
20260510103703 50 23 0.0 0.0 0.00 0.00 0.00 97 1013.6
20260510101704 50 23 0.0 0.0 0.00 0.00 0.00 97 1013.4
20260510101203 50 23 0.0 0.0 0.00 0.00 0.00 97 1013.6
20260510100703 51 23 0.0 0.0 0.00 0.00 0.00 97 1013.5
20260510100203 51 23 0.0 0.0 0.00 0.00 0.00 97 1013.4
20260510094704 51 23 0.0 0.0 0.00 0.00 0.00 97 1013.0
20260510094204 51 23 0.0 0.0 0.00 0.00 0.00 97 1013.0
20260510093704 51 23 0.0 0.0 0.00 0.00 0.00 97 1013.0
20260510091704 51 23 0.0 0.0 0.00 0.00 0.00 96 1012.8
20260510091203 51 23 0.0 0.0 0.00 0.00 0.00 97 1012.8
20260510090704 51 23 0.0 0.0 0.00 0.00 0.00 97 1012.8
20260510090204 51 23 0.0 0.0 0.00 0.00 0.00 97 1012.8
20260510084704 51 23 0.0 0.0 0.00 0.00 0.00 96 1012.6
20260510084203 51 23 0.0 0.0 0.00 0.00 0.00 96 1012.6
20260510083704 51 23 0.0 0.0 0.00 0.00 0.00 96 1012.5
20260510083204 51 23 0.0 0.0 0.00 0.00 0.00 96 1012.5
20260510081703 51 23 0.0 0.0 0.00 0.00 0.00 96 1012.4
20260510081203 51 23 0.0 0.0 0.00 0.00 0.00 96 1012.4
20260510080703 51 23 0.0 0.0 0.00 0.00 0.00 96 1012.3
20260510080203 51 23 0.0 0.0 0.00 0.00 0.00 96 1012.3
20260510074703 52 23 0.0 0.0 0.00 0.00 0.00 96 1012.2
20260510074204 52 23 0.0 0.0 0.00 0.00 0.00 96 1012.2
20260510073703 52 23 0.0 0.0 0.00 0.00 0.00 96 1012.1
20260510073203 52 23 0.0 0.9 0.00 0.00 0.00 96 1012.2
20260510071704 52 30 0.0 0.0 0.00 0.00 0.00 96 1012.1
20260510071203 53 30 0.0 0.0 0.00 0.00 0.00 96 1012.2
20260510070703 53 30 0.0 0.0 0.00 0.00 0.00 96 1012.1
20260510070204 53 30 0.0 1.7 0.00 0.00 0.00 96 1012.2
20260510064704 52 58 0.0 0.0 0.00 0.00 0.00 96 1012.1
20260510064204 52 58 0.0 0.0 0.00 0.00 0.00 96 1012.2
20260510063704 52 58 0.0 0.0 0.00 0.00 0.00 95 1012.3
20260510063204 52 58 0.0 0.0 0.00 0.00 0.00 95 1012.3
20260510061704 53 58 0.0 0.0 0.00 0.00 0.00 95 1012.3
20260510061204 53 58 0.0 0.0 0.00 0.00 0.00 96 1012.3
20260510060703 53 58 0.0 0.0 0.00 0.00 0.00 96 1012.3
20260510054703 53 75 1.7 1.7 0.00 0.00 0.00 95 1012.3
20260510053704 53 136 0.0 0.0 0.00 0.00 0.00 95 1012.4
20260510053203 53 136 0.0 0.0 0.00 0.00 0.00 95 1012.3
20260510051704 53 136 0.0 0.0 0.00 0.00 0.00 95 1012.4
20260510051203 53 136 0.0 0.0 0.00 0.00 0.00 95 1012.4
20260510050204 53 136 0.0 0.0 0.00 0.00 0.00 94 1012.5
20260510044703 54 136 0.0 0.0 0.00 0.00 0.00 94 1012.7
20260510044204 54 136 0.0 0.0 0.00 0.00 0.00 94 1012.7
20260510043704 54 136 0.0 0.0 0.00 0.00 0.00 94 1012.7
20260510043204 54 136 0.0 0.0 0.00 0.00 0.00 93 1012.6
20260510041703 54 136 0.0 0.0 0.00 0.00 0.00 92 1012.7
20260510040704 55 136 0.0 0.0 0.00 0.00 0.00 92 1012.7
20260510040204 55 136 0.0 0.0 0.00 0.00 0.00 92 1012.6
20260510034703 55 136 0.0 0.0 0.00 0.00 0.00 90 1012.6
20260510033704 56 136 0.0 0.0 0.00 0.00 0.00 92 1012.6
20260510033204 56 136 0.0 0.0 0.00 0.00 0.00 91 1012.5
20260510031704 56 136 0.0 0.0 0.00 0.00 0.00 90 1012.4
20260510031203 56 136 0.0 0.0 0.00 0.00 0.00 89 1012.4
20260510030702 56 136 0.0 0.0 0.00 0.00 0.00 88 1012.4
20260510030203 57 136 0.0 0.0 0.00 0.00 0.00 88 1012.3
20260510024702 57 112 0.0 0.0 0.00 0.00 0.00 88 1012.2
20260510024203 57 112 0.0 0.0 0.00 0.00 0.00 86 1012.2
20260510023702 58 112 0.0 0.0 0.00 0.00 0.00 85 1012.1
20260510023202 58 112 0.0 0.0 0.00 0.00 0.00 86 1012.0
20260510021702 59 112 0.0 0.0 0.00 0.00 0.00 84 1011.8
20260510020702 59 112 0.0 0.0 0.00 0.00 0.00 82 1011.6
20260510020202 59 112 0.0 0.0 0.00 0.00 0.00 82 1011.5
20260510014202 61 117 1.7 2.6 0.00 0.00 0.00 79 1011.1
20260510013702 61 96 0.0 0.0 0.00 0.00 0.00 79 1011.0
20260510013202 61 96 0.0 0.0 0.00 0.00 0.00 77 1011.0
20260510011703 63 96 0.0 1.7 0.00 0.00 0.00 74 1010.8
20260510011202 63 96 0.0 2.6 0.00 0.00 0.00 73 1010.8
20260510010702 64 112 1.7 2.6 0.00 0.00 0.00 72 1010.7
20260510010202 64 216 0.0 0.0 0.00 0.00 0.00 71 1010.6
20260510004702 67 216 0.0 0.0 0.00 0.00 0.00 66 1010.5
20260510004202 67 216 0.0 0.0 0.00 0.00 0.00 65 1010.4
20260510003702 68 216 0.0 0.0 0.00 0.00 0.00 63 1010.4
20260510001702 72 202 0.0 6.1 0.00 0.00 0.00 57 1010.0
20260510001202 73 215 4.3 6.1 0.00 0.00 0.00 56 1010.0
20260510000702 73 203 1.7 5.2 0.00 0.00 0.00 54 1010.0
20260509234703 74 208 5.2 13.0 0.00 0.00 0.00 52 1009.9
20260509234203 74 232 4.3 13.0 0.00 0.00 0.00 52 1009.8
20260509233703 74 185 5.2 13.0 0.00 0.00 0.00 52 1009.8
20260509233203 74 206 6.1 12.2 0.00 0.00 0.00 52 1009.8
20260509231703 74 207 3.5 8.7 0.00 0.00 0.00 53 1009.9
20260509231203 75 217 4.3 10.4 0.00 0.00 0.00 52 1009.8
20260509230202 75 215 4.3 12.2 0.00 0.00 0.00 51 1009.8
20260509224703 75 233 6.1 10.4 0.00 0.00 0.00 50 1009.8
20260509224202 76 208 3.5 8.7 0.00 0.00 0.00 50 1009.8
20260509223702 77 213 5.2 8.7 0.00 0.00 0.00 48 1009.7
20260509223203 78 218 5.2 8.7 0.00 0.00 0.00 47 1009.6
20260509221702 80 201 6.1 12.2 0.00 0.00 0.00 45 1009.6
20260509221203 80 193 6.1 12.2 0.00 0.00 0.00 46 1009.6
20260509220202 79 196 7.0 11.3 0.00 0.00 0.00 46 1009.7
20260509214702 80 273 4.3 11.3 0.00 0.00 0.00 44 1009.9
20260509214203 80 193 6.1 11.3 0.00 0.00 0.00 45 1009.9
20260509213702 80 206 5.2 11.3 0.00 0.00 0.00 46 1010.0
20260509213202 80 207 7.8 12.2 0.00 0.00 0.00 46 1010.0
20260509211703 78 195 7.0 13.9 0.00 0.00 0.00 48 1010.0
20260509211202 78 189 7.8 13.9 0.00 0.00 0.00 49 1010.0
20260509210202 77 227 3.5 10.4 0.00 0.00 0.00 50 1009.9
20260509204702 77 263 4.3 13.0 0.00 0.00 0.00 49 1010.0
20260509204202 76 207 4.3 8.7 0.00 0.00 0.00 51 1009.9
20260509203702 76 212 6.1 8.7 0.00 0.00 0.00 50 1010.0
20260509203202 76 204 6.1 10.4 0.00 0.00 0.00 50 1010.0